Amsterdam, Netherlands

2:24 PM CEST on April 28, 2017 (GMT +0200)
Amsterdam

Weather History for 06240 - August, 2013

Change the Weather History Date:

Sunday, August 18, 2013

  Actual Average Record
Temperature  
Mean Temperature 66 °F -  
Max Temperature 72 °F 66 °F - ()
Min Temperature 60 °F 53 °F - ()
Cooling Degree Days 2    
Growing Degree Days 16 (Base 50)    
Moisture  
Dew Point 60 °F    
Average Humidity 81    
Maximum Humidity 100    
Minimum Humidity 60    
Precipitation  
Precipitation 0.02 in - - ()
Sea Level Pressure  
Sea Level Pressure 29.82 in    
Wind  
Wind Speed 13 mph ()    
Max Wind Speed 21 mph    
Max Gust Speed 30 mph    
Visibility 6.7 miles    
Events Rain    
T = Trace of Precipitation, MM = Missing Value Source: Averaged Metar Reports

Daily Weather History Graph

Daily Weather History Graph

Search for Another Location

Airport or City:

Trip Planner

Search our weather history database for the weather conditions in past years. The results will help you decide how hot, cold, wet, or windy it might be!

Date:

Astronomy

Aug. 18, 2013 Rise Set
Actual Time 6:28 AM CEST 8:59 PM CEST
Civil Twilight 5:51 AM CEST 9:36 PM CEST
Nautical Twilight 5:02 AM CEST 10:24 PM CEST
Astronomical Twilight 4:04 AM CEST 11:22 PM CEST
Moon 7:01 PM CEST (8/18) 3:07 AM CEST (8/18)
Length of Visible Light 15h 45m
Length of Day
14h 30m
Waxing Gibbous, 90% of the Moon is Illuminated
Aug 18
Waxing Gibbous
Aug 21
Full
Aug 28
Last Quarter
Sep 5
New
Sep 12
First Quarter

Hourly Weather History & Observations

Time (CEST) Temp. Dew Point Humidity Pressure Visibility Wind Dir Wind Speed Gust Speed Precip Events Conditions
12:25 AM 64.4 °F 59.0 °F 83% 29.83 in - SSW 13.8 mph - N/A   Clear
12:55 AM 64.4 °F 57.2 °F 77% 29.83 in 6.2 mi SSW 13.8 mph - N/A Rain Light Rain
1:25 AM 62.6 °F 59.0 °F 88% 29.83 in 6.2 mi SSW 11.5 mph - N/A Rain Light Rain
1:55 AM 62.6 °F 60.8 °F 94% 29.80 in 6.2 mi SW 10.4 mph - N/A Rain Light Rain
2:00 AM 62 °F 60 °F 90% 29.83 in 7 mi SW 11.2 mph - - Rain Heavy Rain
2:25 AM 62.6 °F 59.0 °F 88% 29.80 in 6.2 mi SSW 9.2 mph - N/A   Scattered Clouds
2:55 AM 62.6 °F 59.0 °F 88% 29.80 in 6.2 mi SSW 12.7 mph - N/A   Partly Cloudy
3:25 AM 62.6 °F 59.0 °F 88% 29.77 in 6.2 mi South 11.5 mph - N/A   Scattered Clouds
3:55 AM 64.4 °F 59.0 °F 83% 29.77 in 6.2 mi SSW 12.7 mph - N/A   Partly Cloudy
4:25 AM 64.4 °F 59.0 °F 83% 29.77 in 6.2 mi SSW 12.7 mph - N/A   Mostly Cloudy
4:55 AM 62.6 °F 60.8 °F 94% 29.77 in 4.3 mi SSW 16.1 mph 29.9 mph N/A Rain Light Rain
5:00 AM 63 °F 60 °F 89% 29.78 in 4 mi SSW 20.1 mph - - Rain Light Rain Showers
5:25 AM 62.6 °F 60.8 °F 94% 29.77 in 3.7 mi SSW 16.1 mph - N/A Rain Rain
5:55 AM 62.6 °F 60.8 °F 94% 29.74 in 4.3 mi SSW 18.4 mph - N/A Rain Light Rain
6:25 AM 62.6 °F 60.8 °F 94% 29.74 in 3.1 mi SSW 15.0 mph - N/A   Light Drizzle
6:55 AM 62.6 °F 62.6 °F 100% 29.74 in - SSW 16.1 mph - N/A   Light Drizzle
7:25 AM 62.6 °F 62.6 °F 100% 29.74 in 1.7 mi SSW 15.0 mph - N/A   Light Drizzle
7:55 AM 62.6 °F 62.6 °F 100% 29.74 in 4.3 mi SSW 16.1 mph - N/A   Light Drizzle
8:00 AM 63 °F 62 °F 96% 29.77 in 5 mi SSW 15.7 mph - - Rain Rain
8:25 AM 62.6 °F 62.6 °F 100% 29.74 in 2.5 mi SSW 15.0 mph - N/A   Light Drizzle
8:55 AM 64.4 °F 62.6 °F 94% 29.77 in 1.9 mi SSW 15.0 mph - N/A Rain Light Rain
9:25 AM 64.4 °F 64.4 °F 100% 29.77 in 6.2 mi SW 15.0 mph - N/A   Mostly Cloudy
9:55 AM 66.2 °F 64.4 °F 94% 29.77 in 6.2 mi SW 15.0 mph - N/A   Mostly Cloudy
10:25 AM 66.2 °F 62.6 °F 88% 29.77 in 6.2 mi WSW 18.4 mph - N/A   Mostly Cloudy
10:55 AM 66.2 °F 62.6 °F 88% 29.80 in 6.2 mi WSW 20.7 mph - N/A   Scattered Clouds
11:00 AM 68 °F 62 °F 77% 29.80 in 14 mi WSW 17.9 mph - -   Partly Cloudy
11:25 AM 69.8 °F 62.6 °F 78% 29.80 in 6.2 mi WSW 19.6 mph - N/A   Scattered Clouds
11:55 AM 69.8 °F 62.6 °F 78% 29.80 in 6.2 mi WSW 17.3 mph - N/A   Scattered Clouds
12:25 PM 68.0 °F 60.8 °F 78% 29.80 in 6.2 mi WSW 19.6 mph - N/A   Scattered Clouds
12:55 PM 69.8 °F 60.8 °F 73% 29.80 in 6.2 mi WSW 19.6 mph - N/A   Scattered Clouds
1:25 PM 69.8 °F 60.8 °F 73% 29.80 in 6.2 mi West 19.6 mph - N/A   Scattered Clouds
1:55 PM 69.8 °F 59.0 °F 68% 29.80 in 6.2 mi WSW 20.7 mph - N/A   Scattered Clouds
2:00 PM 69 °F 59 °F 64% 29.83 in 19 mi WSW 20.1 mph - -   Partly Cloudy
2:25 PM 68.0 °F 59.0 °F 73% 29.83 in 6.2 mi WSW 18.4 mph - N/A   Mostly Cloudy
2:55 PM 69.8 °F 59.0 °F 68% 29.83 in 6.2 mi West 18.4 mph - N/A   Mostly Cloudy
3:25 PM 69.8 °F 59.0 °F 68% 29.83 in 6.2 mi West 18.4 mph - N/A   Scattered Clouds
3:55 PM 69.8 °F 59.0 °F 68% 29.83 in 6.2 mi WSW 16.1 mph - N/A   Scattered Clouds
4:25 PM 69.8 °F 59.0 °F 68% 29.83 in 6.2 mi WSW 16.1 mph - N/A   Scattered Clouds
4:55 PM 69.8 °F 59.0 °F 68% 29.83 in 6.2 mi WSW 16.1 mph - N/A   Scattered Clouds
5:00 PM 69 °F 58 °F 60% 29.86 in 17 mi WSW 15.7 mph - -   Scattered Clouds
5:25 PM 69.8 °F 59.0 °F 68% 29.86 in 6.2 mi WSW 13.8 mph - N/A   Partly Cloudy
5:55 PM 69.8 °F 57.2 °F 64% 29.86 in 6.2 mi West 12.7 mph - N/A   Partly Cloudy
6:25 PM 69.8 °F 57.2 °F 64% 29.86 in 6.2 mi West 13.8 mph - N/A   Partly Cloudy
6:55 PM 68.0 °F 57.2 °F 68% 29.86 in 6.2 mi WSW 10.4 mph - N/A   Partly Cloudy
7:25 PM 68.0 °F 57.2 °F 68% 29.86 in 6.2 mi West 11.5 mph - N/A   Partly Cloudy
7:55 PM 68.0 °F 55.4 °F 64% 29.86 in - West 10.4 mph - N/A   Clear
8:00 PM 67 °F 57 °F 61% 29.88 in 19 mi West 8.9 mph - -   Partly Cloudy
8:25 PM 68.0 °F 57.2 °F 68% 29.86 in - WSW 6.9 mph - N/A   Clear
8:55 PM 66.2 °F 59.0 °F 78% 29.86 in - SW 6.9 mph - N/A   Clear
9:25 PM 66.2 °F 59.0 °F 78% 29.86 in - WSW 6.9 mph - N/A   Clear
9:55 PM 64.4 °F 59.0 °F 83% 29.89 in - SW 5.8 mph - N/A   Clear
10:25 PM 62.6 °F 59.0 °F 88% 29.89 in - SW 5.8 mph - N/A   Clear
10:55 PM 62.6 °F 59.0 °F 88% 29.89 in - SSW 8.1 mph - N/A   Clear
11:00 PM 63 °F 59 °F 81% 29.89 in 12 mi SSW 6.7 mph - -   Partly Cloudy
11:25 PM 62.6 °F 59.0 °F 88% 29.89 in - South 5.8 mph - N/A   Clear
11:55 PM 60.8 °F 59.0 °F 94% 29.89 in - SSE 5.8 mph - N/A   Clear